Location: El Frío
(10.0713°N, 67.9111°W)
Time: 18:49:53
(UTC+00:00)

Cosmos 2263 Rocket - Pass Details

Date: 11 December 2025
Orbit: 821 x 849 km, 71.0° (Epoch: 20 January)

Event Time Altitude Azimuth Distance (km) Brightness Sun altitude
Rises 23:35:42 0° 349° (N) 3,398 5.2 -20.0°
Reaches altitude 10° 23:38:10 10° 353° (N) 2,464 4.5 -20.6°
Maximum altitude 23:43:47 63° 74° (ENE) 937 2.1 -21.9°
Drops below altitude 10° 23:49:22 10° 155° (SSE) 2,464 4.6 -23.2°
Sets 23:51:50 0° 158° (SSE) 3,397 5.3 -23.7°
